TimeEEST,TemperatureF,Dew PointF,Humidity,Sea Level PressureIn,VisibilityMPH,Wind Direction,Wind SpeedMPH,Gust SpeedMPH,PrecipitationIn,Events,Conditions,WindDirDegrees,DateUTC
12:50 AM,71.6,66.2,83,29.95,6.2,Calm,Calm,-,N/A,,Partly Cloudy,0,2012-10-03 21:50:00
1:50 AM,71.6,64.4,78,29.98,6.2,Calm,Calm,-,N/A,,Partly Cloudy,0,2012-10-03 22:50:00
2:50 AM,71.6,64.4,78,29.98,6.2,Calm,Calm,-,N/A,,Partly Cloudy,0,2012-10-03 23:50:00
3:50 AM,71.6,66.2,83,29.98,6.2,Calm,Calm,-,N/A,,Partly Cloudy,0,2012-10-04 00:50:00
4:50 AM,71.6,66.2,83,29.98,6.2,Calm,Calm,-,N/A,,Partly Cloudy,0,2012-10-04 01:50:00
5:50 AM,71.6,68.0,88,29.95,6.2,Calm,Calm,-,N/A,,Scattered Clouds,0,2012-10-04 02:50:00
6:20 AM,71.6,68.0,88,29.95,6.2,Calm,Calm,-,N/A,,Scattered Clouds,0,2012-10-04 03:20:00
6:50 AM,71.6,66.2,83,29.95,6.2,Calm,Calm,-,N/A,,Partly Cloudy,0,2012-10-04 03:50:00
7:20 AM,71.6,66.2,83,29.95,6.2,Calm,Calm,-,N/A,,Partly Cloudy,0,2012-10-04 04:20:00
7:50 AM,64.4,62.6,94,29.92,6.2,Calm,Calm,-,N/A,,Partly Cloudy,0,2012-10-04 04:50:00
8:20 AM,64.4,62.6,94,29.95,6.2,Calm,Calm,-,N/A,,Partly Cloudy,0,2012-10-04 05:20:00
8:50 AM,68.0,64.4,88,29.92,6.2,Calm,Calm,-,N/A,,Partly Cloudy,0,2012-10-04 05:50:00
9:20 AM,71.6,66.2,83,29.95,6.2,Calm,Calm,-,N/A,,Partly Cloudy,0,2012-10-04 06:20:00
9:50 AM,73.4,66.2,78,29.95,6.2,NNW,4.6,-,N/A,,Partly Cloudy,330,2012-10-04 06:50:00
10:20 AM,75.2,66.2,73,29.95,6.2,NNW,4.6,-,N/A,,Partly Cloudy,330,2012-10-04 07:20:00
10:50 AM,75.2,64.4,69,29.95,6.2,NW,4.6,-,N/A,,Partly Cloudy,320,2012-10-04 07:50:00
11:20 AM,75.2,64.4,69,29.95,6.2,NW,4.6,-,N/A,,Partly Cloudy,320,2012-10-04 08:20:00
11:50 AM,77.0,66.2,69,29.95,6.2,WNW,5.8,-,N/A,,Partly Cloudy,290,2012-10-04 08:50:00
12:20 PM,78.8,66.2,65,29.95,6.2,WNW,6.9,-,N/A,,Partly Cloudy,290,2012-10-04 09:20:00
12:50 PM,78.8,66.2,65,29.95,6.2,West,8.1,-,N/A,,Partly Cloudy,280,2012-10-04 09:50:00
1:20 PM,78.8,66.2,65,29.95,6.2,West,8.1,-,N/A,,Partly Cloudy,280,2012-10-04 10:20:00
1:50 PM,78.8,66.2,65,29.95,6.2,WNW,8.1,-,N/A,,Partly Cloudy,290,2012-10-04 10:50:00
2:20 PM,78.8,66.2,65,29.95,6.2,WNW,8.1,-,N/A,,Partly Cloudy,290,2012-10-04 11:20:00
2:50 PM,78.8,66.2,65,29.92,6.2,WNW,11.5,-,N/A,,Partly Cloudy,290,2012-10-04 11:50:00
3:20 PM,78.8,66.2,65,29.92,6.2,WNW,11.5,-,N/A,,Partly Cloudy,290,2012-10-04 12:20:00
3:50 PM,80.6,68.0,65,29.92,6.2,West,13.8,-,N/A,,Partly Cloudy,280,2012-10-04 12:50:00
4:50 PM,78.8,62.6,57,29.92,6.2,WNW,8.1,-,N/A,,Partly Cloudy,300,2012-10-04 13:50:00
5:20 PM,78.8,62.6,57,29.92,6.2,WNW,8.1,-,N/A,,Partly Cloudy,300,2012-10-04 14:20:00
5:50 PM,78.8,66.2,65,29.92,6.2,NW,11.5,-,N/A,,Partly Cloudy,310,2012-10-04 14:50:00
6:20 PM,78.8,66.2,65,29.92,6.2,NW,11.5,-,N/A,,Partly Cloudy,310,2012-10-04 15:20:00
6:50 PM,75.2,66.2,73,29.92,6.2,NW,8.1,-,N/A,,Partly Cloudy,310,2012-10-04 15:50:00
7:20 PM,75.2,66.2,73,29.92,6.2,NNW,8.1,-,N/A,,Partly Cloudy,330,2012-10-04 16:20:00
7:50 PM,75.2,66.2,73,29.92,6.2,NE,5.8,-,N/A,,Partly Cloudy,40,2012-10-04 16:50:00
8:20 PM,75.2,68.0,78,29.92,6.2,NE,4.6,-,N/A,,Partly Cloudy,50,2012-10-04 17:20:00
8:50 PM,73.4,68.0,83,29.92,6.2,NE,8.1,-,N/A,,Partly Cloudy,50,2012-10-04 17:50:00
9:50 PM,73.4,68.0,83,29.95,6.2,NE,6.9,-,N/A,,Partly Cloudy,50,2012-10-04 18:50:00
10:50 PM,73.4,68.0,83,29.95,6.2,NE,9.2,-,N/A,,Partly Cloudy,40,2012-10-04 19:50:00
11:50 PM,69.8,66.2,88,29.95,-9999.0,NE,8.1,-,N/A,,Clear,40,2012-10-04 20:50:00